Flag for U.S.A. Weather past 2 weeks in Irving, Texas, U.S.A.

Now
80 °F

Passing clouds.


Feels Like: 83 °F
Forecast: 71 / 88 °F
Wind: 12 mph from South

Location: Dallas / Fort Worth International Airport

Current Time: Sep 18, 2014 at 9:11:59 PM

Latest Report: Sep 18, 2014 at 8:53 PM


Visibility: 10 mi

Pressure: 29.86 "Hg

Humidity: 69%

Dew point: 69 °F

Location of IrvingLocation

Historic Weather in Irving — Graph

°F

Irving temperature yesterday

Maximum temperature yesterday: 95 °F (at 3:53 PM)
Minimum temperature yesterday: 75 °F (at 5:53 AM)
Average temperature yesterday: 82 °F

Past Weeks' High & Low Weather Summary

 TemperatureHumidityPressure
High101 °F (Sep 10, 3:53 PM)94% (Sep 14, 9:53 AM)30.28 "Hg (Sep 14, 9:53 AM)
Low56 °F (Sep 13, 6:53 AM)33% (Sep 10, 3:53 PM)29.70 "Hg (Sep 10, 4:53 PM)
Average80 °F65%29.99 "Hg
* Reported Sep 3 7:53 PM — Sep 18 7:53 PM, Irving, Weather by CustomWeather, © 2014

Note: Actual official high and low records may vary slightly from our data, if they occured in-between our weather recording intervals... More about our weather records

Advertising

Irving weather history for previous 24 hours

 ConditionsComfort  
Time TempWeatherWind HumidityBarometerVisibility
7:53 PM
Sep 18
83 °FBroken clouds.5 mph61%29.84 "Hg10 mi
6:53 PM85 °FMostly cloudy.7 mph59%29.84 "Hg10 mi
5:53 PM85 °FMostly cloudy.9 mph59%29.82 "Hg10 mi
4:53 PM86 °FCloudy.10 mph59%29.81 "Hg10 mi
3:53 PM85 °FCloudy.14 mph63%29.82 "Hg10 mi
2:53 PM85 °FBroken clouds.16 mph63%29.85 "Hg10 mi
1:53 PM88 °FBroken clouds.9 mph54%29.86 "Hg10 mi
12:53 PM86 °FPartly sunny.7 mph61%29.89 "Hg10 mi
11:53 AM84 °FBroken clouds.7 mph65%29.89 "Hg10 mi
10:53 AM82 °FPartly sunny.7 mph72%29.90 "Hg10 mi
9:53 AM79 °FPartly sunny.6 mph79%29.91 "Hg10 mi
8:53 AM77 °FOvercast.7 mph85%29.90 "Hg10 mi
7:53 AM75 °FPassing clouds.6 mph90%29.87 "Hg10 mi
6:53 AM75 °FPartly cloudy.8 mph88%29.83 "Hg10 mi
5:53 AM75 °FPartly cloudy.6 mph88%29.85 "Hg10 mi
4:53 AM75 °FPassing clouds.5 mph88%29.85 "Hg10 mi
3:53 AM75 °FPassing clouds.5 mph85%29.86 "Hg10 mi
2:53 AM76 °FPartly cloudy.No wind85%29.86 "Hg10 mi
1:53 AM77 °FPartly cloudy.7 mph85%29.85 "Hg10 mi
12:53 AM79 °FMostly cloudy.12 mph79%29.87 "Hg10 mi
11:53 PM
Sep 17
80 °FMostly cloudy.13 mph74%29.88 "Hg10 mi
10:53 PM80 °FOvercast.6 mph76%29.86 "Hg10 mi
9:53 PM80 °FOvercast.3 mph76%29.86 "Hg10 mi
Weather by CustomWeather, © 2014

See weather overviewHow to use our weather pages